Time,TemperatureF,DewpointF,PressureIn,WindDirection,WindDirectionDegrees,WindSpeedMPH,WindSpeedGustMPH,Humidity,HourlyPrecipIn,Conditions,Clouds,dailyrainin,SoftwareType,DateUTC
2013-04-08 00:01:00,65.6,65.0,30.06,SSW,208,3.0,7.0,97,0.00,,,0.00,weatherlink.com 1.10,2013-04-08 05:01:00,
2013-04-08 00:16:00,65.9,65.0,30.05,SSW,195,3.0,6.0,97,0.00,,,0.00,weatherlink.com 1.10,2013-04-08 05:16:00,
2013-04-08 00:31:00,66.1,65.0,30.05,SSW,207,3.0,7.0,96,0.00,,,0.00,weatherlink.com 1.10,2013-04-08 05:31:00,
2013-04-08 00:46:00,66.1,65.0,30.05,SSW,201,1.0,7.0,96,0.00,,,0.00,weatherlink.com 1.10,2013-04-08 05:46:00,
2013-04-08 01:01:00,66.2,65.0,30.05,South,187,4.0,7.0,95,0.00,,,0.00,weatherlink.com 1.10,2013-04-08 06:01:00,
2013-04-08 01:16:00,66.4,65.0,30.05,SSE,168,3.0,6.0,94,0.00,,,0.00,weatherlink.com 1.10,2013-04-08 06:16:00,
2013-04-08 01:46:00,66.2,64.0,30.04,South,177,1.0,6.0,93,0.00,,,0.00,weatherlink.com 1.10,2013-04-08 06:46:00,
2013-04-08 02:01:00,66.1,64.0,30.04,SSW,212,2.0,6.0,93,0.00,,,0.00,weatherlink.com 1.10,2013-04-08 07:01:00,
2013-04-08 02:16:00,66.2,65.0,30.03,SSW,208,2.0,6.0,94,0.00,,,0.00,weatherlink.com 1.10,2013-04-08 07:16:00,
2013-04-08 02:31:00,66.1,64.0,30.03,South,179,2.0,3.0,94,0.00,,,0.00,weatherlink.com 1.10,2013-04-08 07:31:00,
2013-04-08 02:46:00,65.9,65.0,30.03,SW,214,1.0,4.0,95,0.00,,,0.00,weatherlink.com 1.10,2013-04-08 07:46:00,
2013-04-08 03:16:00,65.5,64.0,30.03,South,184,2.0,4.0,96,0.00,,,0.00,weatherlink.com 1.10,2013-04-08 08:16:00,
2013-04-08 03:31:00,65.2,64.0,30.02,ESE,122,0.0,3.0,96,0.00,,,0.00,weatherlink.com 1.10,2013-04-08 08:31:00,
2013-04-08 03:46:00,64.9,64.0,30.02,SE,133,1.0,3.0,96,0.00,,,0.00,weatherlink.com 1.10,2013-04-08 08:46:00,
2013-04-08 04:01:00,64.8,64.0,30.03,SSE,155,1.0,3.0,96,0.00,,,0.00,weatherlink.com 1.10,2013-04-08 09:01:00,
2013-04-08 04:16:00,64.6,64.0,30.02,South,172,1.0,4.0,96,0.00,,,0.00,weatherlink.com 1.10,2013-04-08 09:16:00,
2013-04-08 04:31:00,64.8,64.0,30.02,South,173,1.0,5.0,96,0.00,,,0.00,weatherlink.com 1.10,2013-04-08 09:31:00,
2013-04-08 04:46:00,65.1,64.0,30.02,SSE,158,2.0,4.0,95,0.00,,,0.00,weatherlink.com 1.10,2013-04-08 09:46:00,
2013-04-08 05:01:00,65.4,64.0,30.03,SSE,149,1.0,3.0,94,0.00,,,0.00,weatherlink.com 1.10,2013-04-08 10:01:00,
2013-04-08 05:16:00,65.4,64.0,30.03,South,169,0.0,4.0,94,0.00,,,0.00,weatherlink.com 1.10,2013-04-08 10:16:00,
2013-04-08 05:31:00,64.9,64.0,30.03,SSE,155,1.0,2.0,95,0.00,,,0.00,weatherlink.com 1.10,2013-04-08 10:31:00,
2013-04-08 05:47:00,64.4,63.0,30.04,SE,142,1.0,3.0,96,0.00,,,0.00,weatherlink.com 1.10,2013-04-08 10:47:00,
2013-04-08 06:01:00,64.3,64.0,30.04,ESE,105,1.0,4.0,97,0.00,,,0.00,weatherlink.com 1.10,2013-04-08 11:01:00,
2013-04-08 06:16:00,64.1,63.0,30.04,ESE,117,2.0,5.0,97,0.00,,,0.00,weatherlink.com 1.10,2013-04-08 11:16:00,
2013-04-08 06:31:00,64.2,64.0,30.05,SE,136,2.0,5.0,98,0.00,,,0.00,weatherlink.com 1.10,2013-04-08 11:31:00,
2013-04-08 06:47:00,64.4,64.0,30.05,SSW,192,4.0,5.0,97,0.00,,,0.00,weatherlink.com 1.10,2013-04-08 11:47:00,
2013-04-08 07:02:00,64.5,64.0,30.06,South,177,2.0,6.0,97,0.00,,,0.00,weatherlink.com 1.10,2013-04-08 12:02:00,
2013-04-08 07:32:00,66.2,65.0,30.07,SSW,210,1.0,10.0,96,0.00,,,0.00,weatherlink.com 1.10,2013-04-08 12:32:00,
2013-04-08 07:47:00,66.8,65.0,30.07,SE,131,4.0,5.0,95,0.00,,,0.00,weatherlink.com 1.10,2013-04-08 12:47:00,
2013-04-08 08:02:00,67.8,66.0,30.08,ESE,103,3.0,8.0,93,0.00,,,0.00,weatherlink.com 1.10,2013-04-08 13:02:00,
2013-04-08 08:17:00,69.1,66.0,30.08,SSW,197,5.0,11.0,90,0.00,,,0.00,weatherlink.com 1.10,2013-04-08 13:17:00,
2013-04-08 08:32:00,70.0,65.0,30.08,South,181,2.0,8.0,85,0.00,,,0.00,weatherlink.com 1.10,2013-04-08 13:32:00,
2013-04-08 08:47:00,70.4,64.0,30.08,SSW,203,7.0,12.0,80,0.00,,,0.00,weatherlink.com 1.10,2013-04-08 13:47:00,
2013-04-08 09:02:00,70.8,64.0,30.09,SSE,159,4.0,14.0,79,0.00,,,0.00,weatherlink.com 1.10,2013-04-08 14:02:00,
2013-04-08 09:17:00,71.5,64.0,30.09,SE,135,6.0,12.0,77,0.00,,,0.00,weatherlink.com 1.10,2013-04-08 14:17:00,
2013-04-08 09:32:00,71.5,64.0,30.09,SSE,150,1.0,14.0,76,0.00,,,0.00,weatherlink.com 1.10,2013-04-08 14:32:00,
2013-04-08 09:47:00,72.0,64.0,30.09,SE,138,10.0,16.0,75,0.00,,,0.00,weatherlink.com 1.10,2013-04-08 14:47:00,
2013-04-08 10:02:00,72.6,64.0,30.11,SSE,153,5.0,11.0,74,0.00,,,0.00,weatherlink.com 1.10,2013-04-08 15:02:00,
2013-04-08 10:17:00,73.3,64.0,30.11,SSE,159,4.0,13.0,72,0.00,,,0.00,weatherlink.com 1.10,2013-04-08 15:17:00,
2013-04-08 10:32:00,73.2,64.0,30.12,ESE,105,10.0,14.0,73,0.00,,,0.00,weatherlink.com 1.10,2013-04-08 15:32:00,
2013-04-08 10:47:00,73.7,64.0,30.12,SE,125,5.0,16.0,71,0.00,,,0.00,weatherlink.com 1.10,2013-04-08 15:47:00,
2013-04-08 11:02:00,73.8,64.0,30.12,SSE,155,8.0,14.0,72,0.00,,,0.00,weatherlink.com 1.10,2013-04-08 16:02:00,
2013-04-08 11:17:00,75.3,65.0,30.12,SE,131,9.0,15.0,70,0.00,,,0.00,weatherlink.com 1.10,2013-04-08 16:17:00,
2013-04-08 11:32:00,75.5,64.0,30.12,South,174,5.0,14.0,67,0.00,,,0.00,weatherlink.com 1.10,2013-04-08 16:32:00,
2013-04-08 11:47:00,75.9,64.0,30.12,SSE,148,6.0,14.0,66,0.00,,,0.00,weatherlink.com 1.10,2013-04-08 16:47:00,
2013-04-08 12:02:00,76.4,64.0,30.12,West,259,1.0,16.0,65,0.00,,,0.00,weatherlink.com 1.10,2013-04-08 17:02:00,
2013-04-08 12:17:00,77.3,65.0,30.11,South,172,6.0,14.0,65,0.00,,,0.00,weatherlink.com 1.10,2013-04-08 17:17:00,
2013-04-08 12:32:00,76.6,64.0,30.11,SSW,212,7.0,18.0,65,0.00,,,0.00,weatherlink.com 1.10,2013-04-08 17:32:00,
2013-04-08 12:47:00,76.1,65.0,30.11,ESE,112,6.0,14.0,68,0.00,,,0.00,weatherlink.com 1.10,2013-04-08 17:47:00,
2013-04-08 13:02:00,77.7,66.0,30.11,WSW,250,2.0,14.0,68,0.00,,,0.00,weatherlink.com 1.10,2013-04-08 18:02:00,
2013-04-08 13:17:00,77.9,66.0,30.10,South,173,5.0,15.0,66,0.00,,,0.00,weatherlink.com 1.10,2013-04-08 18:17:00,
2013-04-08 13:32:00,77.7,66.0,30.10,South,173,7.0,15.0,67,0.00,,,0.00,weatherlink.com 1.10,2013-04-08 18:32:00,
2013-04-08 13:48:00,77.9,66.0,30.09,SSE,148,5.0,20.0,67,0.00,,,0.00,weatherlink.com 1.10,2013-04-08 18:48:00,
2013-04-08 14:03:00,78.1,68.0,30.09,SSE,165,7.0,10.0,70,0.00,,,0.00,weatherlink.com 1.10,2013-04-08 19:03:00,
2013-04-08 14:18:00,78.0,67.0,30.08,SSW,206,7.0,17.0,69,0.00,,,0.00,weatherlink.com 1.10,2013-04-08 19:18:00,
2013-04-08 14:33:00,77.6,68.0,30.08,SSE,166,6.0,15.0,71,0.00,,,0.00,weatherlink.com 1.10,2013-04-08 19:33:00,
2013-04-08 14:48:00,78.5,68.0,30.08,SSE,159,5.0,14.0,69,0.00,,,0.00,weatherlink.com 1.10,2013-04-08 19:48:00,
2013-04-08 15:03:00,77.8,66.0,30.07,SSW,200,2.0,15.0,67,0.00,,,0.00,weatherlink.com 1.10,2013-04-08 20:03:00,
2013-04-08 15:18:00,78.3,66.0,30.07,SSE,159,5.0,14.0,67,0.00,,,0.00,weatherlink.com 1.10,2013-04-08 20:18:00,
2013-04-08 15:33:00,77.7,68.0,30.07,SSE,147,2.0,13.0,71,0.00,,,0.00,weatherlink.com 1.10,2013-04-08 20:33:00,
2013-04-08 15:48:00,78.1,68.0,30.06,South,173,9.0,13.0,71,0.00,,,0.00,weatherlink.com 1.10,2013-04-08 20:48:00,
2013-04-08 16:03:00,77.9,68.0,30.06,SE,141,5.0,13.0,71,0.00,,,0.00,weatherlink.com 1.10,2013-04-08 21:03:00,
2013-04-08 16:18:00,77.2,68.0,30.06,West,264,2.0,12.0,74,0.00,,,0.00,weatherlink.com 1.10,2013-04-08 21:18:00,
2013-04-08 16:33:00,76.8,68.0,30.06,SSE,166,9.0,13.0,75,0.00,,,0.00,weatherlink.com 1.10,2013-04-08 21:33:00,
2013-04-08 16:48:00,76.8,69.0,30.05,SSW,200,4.0,16.0,76,0.00,,,0.00,weatherlink.com 1.10,2013-04-08 21:48:00,
2013-04-08 17:04:00,75.7,68.0,30.05,SSE,159,4.0,13.0,78,0.00,,,0.00,weatherlink.com 1.10,2013-04-08 22:04:00,
2013-04-08 17:18:00,75.7,69.0,30.06,SE,127,8.0,12.0,79,0.00,,,0.00,weatherlink.com 1.10,2013-04-08 22:18:00,
2013-04-08 17:33:00,75.0,69.0,30.05,ESE,113,5.0,9.0,81,0.00,,,0.00,weatherlink.com 1.10,2013-04-08 22:33:00,
2013-04-08 17:48:00,74.4,69.0,30.06,ESE,120,5.0,10.0,83,0.00,,,0.00,weatherlink.com 1.10,2013-04-08 22:48:00,
2013-04-08 18:03:00,73.6,69.0,30.06,SSE,148,6.0,15.0,84,0.00,,,0.00,weatherlink.com 1.10,2013-04-08 23:03:00,
2013-04-08 18:18:00,72.7,68.0,30.06,ESE,122,1.0,13.0,86,0.00,,,0.00,weatherlink.com 1.10,2013-04-08 23:18:00,
2013-04-08 18:33:00,71.7,68.0,30.06,SE,139,9.0,12.0,88,0.00,,,0.00,weatherlink.com 1.10,2013-04-08 23:33:00,
2013-04-08 18:48:00,70.5,68.0,30.06,SSE,150,5.0,10.0,91,0.00,,,0.00,weatherlink.com 1.10,2013-04-08 23:48:00,
2013-04-08 19:03:00,69.8,67.0,30.06,South,180,4.0,11.0,92,0.00,,,0.00,weatherlink.com 1.10,2013-04-09 00:03:00,
2013-04-08 19:18:00,69.2,67.0,30.06,SSW,198,7.0,11.0,93,0.00,,,0.00,weatherlink.com 1.10,2013-04-09 00:18:00,
2013-04-08 19:33:00,68.8,67.0,30.07,SSE,152,3.0,7.0,94,0.00,,,0.00,weatherlink.com 1.10,2013-04-09 00:33:00,
2013-04-08 19:48:00,68.5,67.0,30.07,ESE,111,4.0,8.0,94,0.00,,,0.00,weatherlink.com 1.10,2013-04-09 00:48:00,
2013-04-08 20:03:00,68.4,67.0,30.07,SSE,159,3.0,9.0,95,0.00,,,0.00,weatherlink.com 1.10,2013-04-09 01:03:00,
2013-04-08 20:18:00,68.2,67.0,30.07,SSE,150,4.0,7.0,95,0.00,,,0.00,weatherlink.com 1.10,2013-04-09 01:18:00,
2013-04-08 20:33:00,68.0,67.0,30.07,SSE,158,4.0,6.0,95,0.00,,,0.00,weatherlink.com 1.10,2013-04-09 01:33:00,
2013-04-08 20:48:00,67.9,67.0,30.08,SE,142,2.0,10.0,95,0.00,,,0.00,weatherlink.com 1.10,2013-04-09 01:48:00,
2013-04-08 21:03:00,67.9,67.0,30.08,ESE,107,2.0,9.0,95,0.00,,,0.00,weatherlink.com 1.10,2013-04-09 02:03:00,
2013-04-08 21:18:00,67.8,66.0,30.08,SSE,162,2.0,9.0,95,0.00,,,0.00,weatherlink.com 1.10,2013-04-09 02:18:00,
2013-04-08 21:33:00,67.6,67.0,30.09,SE,134,3.0,6.0,96,0.00,,,0.00,weatherlink.com 1.10,2013-04-09 02:33:00,
2013-04-08 21:48:00,67.5,66.0,30.09,SSE,149,1.0,8.0,96,0.00,,,0.00,weatherlink.com 1.10,2013-04-09 02:48:00,
2013-04-08 22:03:00,67.5,66.0,30.09,SE,145,2.0,7.0,96,0.00,,,0.00,weatherlink.com 1.10,2013-04-09 03:03:00,
2013-04-08 22:18:00,67.4,66.0,30.09,South,172,1.0,6.0,96,0.00,,,0.00,weatherlink.com 1.10,2013-04-09 03:18:00,
2013-04-08 22:33:00,67.4,66.0,30.09,SSE,162,1.0,5.0,96,0.00,,,0.00,weatherlink.com 1.10,2013-04-09 03:33:00,
2013-04-08 22:48:00,67.5,67.0,30.09,SSW,204,2.0,7.0,97,0.00,,,0.00,weatherlink.com 1.10,2013-04-09 03:48:00,
2013-04-08 23:03:00,67.6,67.0,30.09,SSW,193,5.0,8.0,97,0.00,,,0.00,weatherlink.com 1.10,2013-04-09 04:03:00,
2013-04-08 23:18:00,67.7,67.0,30.08,SSE,163,3.0,9.0,96,0.00,,,0.00,weatherlink.com 1.10,2013-04-09 04:18:00,
2013-04-08 23:33:00,67.6,67.0,30.07,ESE,104,5.0,7.0,96,0.00,,,0.00,weatherlink.com 1.10,2013-04-09 04:33:00,
2013-04-08 23:48:00,67.6,67.0,30.07,SSE,150,2.0,8.0,96,0.00,,,0.00,weatherlink.com 1.10,2013-04-09 04:48:00,